Other Public Products
Issued by NWS Grand Forks, ND

Home | Current Version | Previous Version | Graphics & Text | Print | Product List | Glossary On
Versions: 1 2 3 4 5 6 7 8 9 10 11 12 13 14 15 16 17 18 19 20 21 22 23 24 25 26 27 28 29 30 31 32 33 34 35 36 37 38 39 40 41 42 43 44 45 46 47 48 49 50
000
FPUS83 KFGF 181731
OPUFGF
PRAIRIE TO PINES WEATHER ROUNDUP
NATIONAL WEATHER SERVICE EASTERN NORTH DAKOTA/GRAND FORKS ND
1100 AM CST THU DEC 18 2014

 **SATELLITE DATA USED TO AUGMENT SKY COVER AT AUTOMATED STATIONS**
 *****  WEATHER ACROSS EASTERN NORTH DAKOTA  *****

CITY           SKY/WX    TMP DP  RH WIND       PRES   REMARKS
GRAND FORKS    CLOUDY    14  11  87 S8        30.24S WCI   3
GRAND FORKS AF CLOUDY    16  16  99 S8        30.23S WCI   5
GRAND CITY NWS NOT AVBL
BUXTON           N/A     14  13  94 SE8         N/A  WCI   3
DEVILS LAKE    CLOUDY    18   9  68 S10       30.11F WCI   6
FARGO          CLOUDY    16  11  80 S13       30.25S WCI   2
WAHPETON ARPT  CLOUDY    14  10  85 SE5       30.26S WCI   6
$$

 *****  WEATHER ACROSS CENTRAL AND WESTERN NORTH DAKOTA  *****

CITY           SKY/WX    TMP DP  RH WIND       PRES   REMARKS
JAMESTOWN      CLOUDY    18  13  80 S12       30.14F WCI   5
BISMARCK       CLOUDY    20  18  92 S10       30.09S WCI   9
MINOT          CLOUDY    20  15  81 SE6       30.05S WCI  12
MINOT AFB      CLOUDY    19  19 100 S8        30.05S WCI   9
GARRISON         N/A     20  18  92 S9        30.04S WCI   9
WILLISTON      CLOUDY    23  19  85 S7        30.00S WCI  15
DICKINSON      CLOUDY    26  22  84 S6        29.96R WCI  19
HETTINGER      CLOUDY    27  24  89 SW5       29.99S WCI  22
$$

 *****  OTHER OBSERVATIONS NORTHEAST NORTH DAKOTA  *****

CITY           SKY/WX    TMP DP  RH WIND       PRES   REMARKS
WALHALLA         N/A     16  16 100 S9        30.19F WCI   4
LANGDON        PTSUNNY   19  16  86 S14       30.13S WCI   6
CAVALIER       FAIR      14  12  92 S7        30.21F FOG     WCI   4
GRAFTON        NOT AVBL
CANDO          CLOUDY    16  14  93 S13       30.12F WCI   2
FORT TOTTEN      N/A     16  13  86 S8        29.95  WCI   5
ROLLA          PTSUNNY   12  12 100 S8        30.09F WCI   1
RUGBY          CLOUDY    16  14  93 SE9       30.09F WCI   4
 ***** THE ABOVE OBSERVATIONS ARE NON NWS ARE NOT QUALITY
        CONTROLLED AND MAY MIS-REPORT RAIN FOR SNOW...
$$

 *****  OTHER OBSERVATIONS SOUTHEAST NORTH DAKOTA *****

CITY           SKY/WX    TMP DP  RH WIND       PRES   REMARKS
COOPERSTOWN    NOT AVBL
VALLEY CITY    CLOUDY    16  16 100 S8        30.17F WCI   5
OAKES            N/A     19  18  93 S8        30.18S WCI   9
GWINNER        CLOUDY    21  21 100 MISG      30.20F
SHEYENNE NWR     N/A     16  12  84 SE6       29.95S WCI   7
BUFFALO        NOT AVBL
WYNDMERE       NOT AVBL
 ***** THE ABOVE OBSERVATIONS ARE NON NWS ARE NOT QUALITY
       CONTROLLED AND MAY MIS-REPORT RAIN FOR SNOW...
$$

  *****  WEATHER ACROSS NORTHERN MINNESOTA  *****

CITY           SKY/WX    TMP DP  RH WIND       PRES   REMARKS
FLAG ISLAND    SUNNY     10   7  85 S9        30.25F WCI  -2
WARROAD        SUNNY     16  10  79 CALM      30.24F
ROSEAU         SUNNY     19  12  73 S7        30.24S WCI  10
HALLOCK        MOSUNNY   16  12  86 S9        30.23S WCI   4
THF RVR FALLS  SUNNY     16  10  79 SE8       30.23F WCI   5
HALSTAD          N/A     17  12  82 S13         N/A  WCI   3
FOSSTON        SUNNY     18  12  79 SE6       30.24S WCI   9
BAUDETTE       SUNNY     13   9  84 CALM      30.25F
WASKISH        MOSUNNY   18  16  93 SE8       30.26S WCI   7
CROOKSTON      PTSUNNY   16  12  86 S12       30.26S WCI   3
$$
  *****  WEATHER ACROSS CENTRAL AND WEST MINNESOTA  *****

CITY           SKY/WX    TMP DP  RH WIND       PRES   REMARKS
BEMIDJI        FLURRIES  15  12  86 SE10      30.24F WCI   3
PARK RAPIDS    PTSUNNY   14  10  84 SE10      30.25R FOG     WCI   1
WADENA         MOSUNNY   14  12  92 NW10      30.24F WCI   1
DETROIT LAKES  MOSUNNY   18  14  86 S12       30.24S WCI   5
MOORHEAD       PTSUNNY   16  16 100 S13       30.26S WCI   2
FERGUS FALLS   CLOUDY    14  10  85 S13       30.28F WCI   0
ELBOW LAKE     CLOUDY    14  12  92 S13       30.25F WCI   0
MORRIS MN      CLOUDY    16  12  86 SE9       30.24F WCI   4
STAPLES        CLOUDY    16  12  86 SE7       30.26F WCI   6
WHEATON        CLOUDY    14  12  92 SE9       30.26F WCI   2
$$
  *****  WEATHER ELSEWHERE ACROSS MINNESOTA  *****

CITY           SKY/WX    TMP DP  RH WIND       PRES   REMARKS
DULUTH         CLOUDY    23  18  81 NE3       30.24F
INTRNTL FALLS  CLOUDY    15  11  83 VRB5      30.28F WCI   8
ELY            CLOUDY    18  16  93 CALM      30.27F
CLOQUET        CLOUDY    21  19  93 CALM      30.26S
BRAINERD       LGT SNOW  18  14  84 SE3       30.28F FOG
HIBBING        CLOUDY    20  14  77 CALM      30.26F
ALEXANDRIA     SUNNY     16  11  80 S9        30.25S WCI   4
SAINT CLOUD    LGT SNOW  19  14  81 SE3       30.29F VSB 1
MINNEAPOLIS    LGT SNOW  18  15  88 CALM      30.32S FOG
$$

  *****  WEATHER ACROSS SOUTH DAKOTA  *****

CITY           SKY/WX    TMP DP  RH WIND       PRES   REMARKS
SIOUX FALLS    CLOUDY    23  18  81 S8        30.22S WCI  14
BROOKINGS      NOT AVBL
WATERTOWN      CLOUDY    20  16  84 S10       30.17F WCI   9
HURON          CLOUDY    22  18  85 SE10      30.19F WCI  11
SISSETON         N/A     17  13  84 S9        30.22F WCI   6
ABERDEEN       CLOUDY    22  17  81 S10       30.19S WCI  11
MITCHELL         N/A     24  21  88 MISG      30.21S
PIERRE         CLOUDY    24  21  88 SE8       30.11S WCI  15
MOBRIDGE       CLOUDY    24  22  91 S10       30.07S FOG     WCI  14
RAPID CITY     MOSUNNY   24  21  88 CALM      30.01S
$$

  *****  SOME WEATHER IN NEARBY STATES *****

CITY           SKY/WX    TMP DP  RH WIND       PRES   REMARKS
GLASGOW MT     CLOUDY    26  23  88 S3        29.95S FOG
GREAT FALLS MT CLOUDY    35  24  64 SW21      29.90S WCI  24
CHEYENNE WY    SUNNY     36  16  44 W18       30.03R
SCOTTSBLUFF NE MOSUNNY   10   7  87 NW7       30.08R FOG     WCI  -1
OMAHA NE       LGT SNOW  28  24  85 S6        30.27S FOG     WCI  22
DES MOINES IA  CLOUDY    27  18  69 CALM      30.29S
DAVENPORT IA   CLOUDY    23  17  78 CALM      30.30F
CHICAGO IL     CLOUDY    25  16  68 W7        30.28F WCI  17
EAU CLAIRE WI  CLOUDY    23  18  81 CALM      30.30S
LA CROSSE WI   CLOUDY    24  17  74 SW3       30.32S
$$

  *****  SOME NATIONAL WEATHER *****

CITY           SKY/WX    TMP DP  RH WIND       PRES   REMARKS
LA GUARDIA NY  PTSUNNY   40  24  53 NW22G30   29.96F
RALEIGH NC     MOSUNNY   47  23  38 N3        30.15F
ATLANTA GA     CLOUDY    46  32  58 N3        30.16F
NEW ORLEANS LA PTSUNNY   66  52  60 SE8       30.17F
OKLAHOMA CITY  CLOUDY    43  37  81 CALM      30.17S FOG
ALBUQUERQUE NM PTSUNNY   36  31  82 S5        30.17S
SALT LAKE CITY PTSUNNY   36  32  85 S5        30.16R
LOS ANGELES CA PTSUNNY   54  45  71 E6        30.19R
BOISE ID       CLOUDY    39  31  72 SE12      30.10R
SEATTLE WA     CLOUDY    44  40  85 SE6       29.93F
$$

*** WEATHER ACROSS MANITOBA...SASKATCHEWAN AND ONTARIO ***
                ***ONTARIO***

CITY           SKY/WX    TMP DP  RH WIND       PRES   REMARKS
GERALDTON      SUNNY      7   3  85 CALM      30.28F
THUNDER BAY    MOSUNNY    7   1  78 SW8       30.36  WCI  -6
SIOUX LOOKOUT  MOSUNNY    5   0  78 S5        30.29F WCI  -4
TORONTO        CLOUDY    30  25  80 NW13      30.08F WCI  20
BIG TROUT LK   SUNNY      7   5  92 W7        30.22F WCI  -5
PICKLE LAKE    SUNNY      7   1  78 SW3       30.27F
DRYDEN         SUNNY      7   3  85 S9        30.28F WCI  -7
KENORA         PTSUNNY   10   3  72 S7        30.24F WCI   0
$$
                *** MANITOBA***

CITY           SKY/WX    TMP DP  RH WIND       PRES   REMARKS
BRANDON        PTSUNNY    3   0  85 E3        30.12F
DAUPHIN        SUNNY     10   9  92 W7        30.09F WCI   0
ISLAND LAKE    SUNNY      9   3  78 S7        30.17F WCI  -3
PILOT MOUND      N/A     10   9  92 S8          N/A  WCI  -1
THE PAS        LGT SNOW   9   7  92 SE3       30.03S
THOMPSON       LGT SNOW   3   1  92 S7        30.04F WCI  -9
WINNIPEG       CLOUDY    12   9  85 S10       30.23  WCI  -1
LYNN LAKE      LGT SNOW  12  10  92 W8        29.92S WCI   1
CHURCHILL      PTCLDY     3   1  92 W6        30.01F WCI  -8
GILLAM         CLEAR      3   0  85 SW9       30.08  WCI -11
$$
                ***SASKATCHEWAN***

CITY           SKY/WX    TMP DP  RH WIND       PRES   REMARKS
ESTEVAN        CLOUDY    18  14  86 SE7       30.00  WCI   8
KINDERSLEY     FOG       14  12  92 W5        29.87S VSB 1/4 WCI   6
LLOYDMINSTER   FOG       18  16  93 NW3       29.85S VSB 3/4
PRINCE ALBERT  FRZ DRZL  18  18 100 SW5       29.93  FOG     WCI  11
REGINA         CLOUDY    21  21 100 S9        29.95S FOG     WCI  11



USA.gov is the U.S. government's official web portal to all federal, state and local government web resources and services.